Location: Calvera
(42.3882°N, 0.6137°E)
Time: 19:34:33
(UTC+00:00)

SL-19 R/B - Pass Details

Date: 28 October 2020
Orbit: 358 x 808 km, 99.4° (Epoch: 22 November)

Event Time Altitude Azimuth Distance (km) Brightness Sun altitude
Rises 05:25:21 0° 5° (N) 2,201 7.4 -11.8°
Reaches altitude 10° 05:27:23 10° 354° (N) 1,348 6.2 -11.5°
Maximum altitude 05:29:55 31° 290° (WNW) 676 4.2 -11.0°
Drops below altitude 10° 05:32:31 10° 225° (SW) 1,383 6.0 -10.5°
Sets 05:34:38 0° 215° (SW) 2,272 7.2 -10.1°
